Track WNISAT 1R now! 10-day predictions WNISAT 1R is classified as:
1 42835U 17042L 24347.43226328 .00004911 00000-0 42709-3 0 9996 2 42835 97.3875 158.2465 0011382 185.0804 175.0305 14.97347937403816